カタログに戻る

FENGYUN 1C DEB

LostPO
NORAD 32426·DEBRIS·🇨🇳 China

打ち上げ May 10, 1999 から Taiyuan Satellite Launch Center

Loading…

次のパス (今後24時間)

TLE

古いSource: Space-Track

元期: Oct 11, 2011, 11:21 UTC

1 32426U 99025DAN 11284.47345556  .00002401  00000-0  24138-2 0  9994
2 32426  98.2688  30.8916 0302044 225.3839 132.3573 13.60063636207829

AllMySatでFENGYUN 1C DEBをリアルタイム追跡

Download on the App Store